| time (UTC) | temp F | wind direction | speed MPH | gust MPH | rain 1hr in | rain 24hr in | rain mn in | humidity % | barometer mb |
| 20260504050500 | 56 | 290 | 0.0 | 3.0 | 0.00 | 0.00 | 0.00 | 69 | 1005.6 |
| 20260504050004 | 56 | 297 | 0.0 | 2.0 | 0.00 | 0.00 | 0.00 | 69 | 1005.5 |
| 20260504045500 | 56 | 271 | 0.0 | 2.0 | 0.00 | 0.00 | 0.00 | 69 | 1005.4 |
| 20260504044501 | 57 | 253 | 1.0 | 3.0 | 0.00 | 0.00 | 0.00 | 68 | 1005.4 |
| 20260504044000 | 57 | 288 | 0.0 | 3.0 | 0.00 | 0.00 | 0.00 | 68 | 1005.4 |
| 20260504043500 | 57 | 269 | 0.0 | 2.0 | 0.00 | 0.00 | 0.00 | 68 | 1005.4 |
| 20260504043000 | 57 | 245 | 0.0 | 2.0 | 0.00 | 0.00 | 0.00 | 68 | 1005.4 |
| 20260504042501 | 57 | 220 | 0.0 | 1.0 | 0.00 | 0.00 | 0.00 | 68 | 1005.4 |
| 20260504042000 | 57 | 168 | 0.0 | 1.0 | 0.00 | 0.00 | 0.00 | 68 | 1005.4 |
| 20260504041000 | 57 | 231 | 0.0 | 2.0 | 0.00 | 0.00 | 0.00 | 68 | 1005.4 |
| 20260504040501 | 58 | 220 | 0.0 | 2.0 | 0.00 | 0.00 | 0.00 | 67 | 1005.4 |
| 20260504040002 | 58 | 233 | 0.0 | 2.0 | 0.00 | 0.00 | 0.00 | 67 | 1005.4 |
| 20260504035502 | 58 | 221 | 0.0 | 2.0 | 0.00 | 0.00 | 0.00 | 67 | 1005.3 |
| 20260504035000 | 58 | 211 | 0.0 | 2.0 | 0.00 | 0.00 | 0.00 | 67 | 1005.4 |
| 20260504034500 | 58 | 244 | 0.0 | 2.0 | 0.00 | 0.00 | 0.00 | 66 | 1005.4 |
| 20260504034001 | 59 | 248 | 1.0 | 3.0 | 0.00 | 0.00 | 0.00 | 66 | 1005.4 |
| 20260504033500 | 59 | 229 | 0.0 | 3.0 | 0.00 | 0.00 | 0.00 | 66 | 1005.5 |
| 20260504033001 | 59 | 141 | 0.0 | 3.0 | 0.00 | 0.00 | 0.00 | 66 | 1005.5 |
| 20260504032500 | 59 | 226 | 1.0 | 4.0 | 0.00 | 0.00 | 0.00 | 66 | 1005.5 |
| 20260504032001 | 59 | 211 | 0.0 | 4.0 | 0.00 | 0.00 | 0.00 | 66 | 1005.6 |
| 20260504031000 | 59 | 207 | 0.0 | 1.0 | 0.00 | 0.00 | 0.00 | 65 | 1005.6 |
| 20260504030500 | 59 | 203 | 0.0 | 1.0 | 0.00 | 0.00 | 0.00 | 65 | 1005.7 |
| 20260504030005 | 59 | 239 | 0.0 | 1.0 | 0.00 | 0.00 | 0.00 | 65 | 1005.7 |
| 20260504025000 | 59 | 214 | 0.0 | 1.0 | 0.00 | 0.00 | 0.00 | 64 | 1005.8 |
| 20260504024001 | 60 | 127 | 0.0 | 1.0 | 0.00 | 0.00 | 0.00 | 63 | 1005.7 |
| 20260504023000 | 60 | 216 | 0.0 | 1.0 | 0.00 | 0.00 | 0.00 | 63 | 1005.7 |
| 20260504022500 | 60 | 216 | 0.0 | 1.0 | 0.00 | 0.00 | 0.00 | 62 | 1005.7 |
| 20260504021000 | 61 | 227 | 0.0 | 1.0 | 0.00 | 0.00 | 0.00 | 61 | 1005.5 |
| 20260504020502 | 61 | 227 | 0.0 | 2.0 | 0.00 | 0.00 | 0.00 | 60 | 1005.6 |
| 20260504020003 | 61 | 225 | 0.0 | 2.0 | 0.00 | 0.00 | 0.00 | 60 | 1005.5 |
| 20260504015500 | 61 | 228 | 0.0 | 1.0 | 0.00 | 0.00 | 0.00 | 59 | 1005.4 |
| 20260504015000 | 61 | 228 | 0.0 | 1.0 | 0.00 | 0.00 | 0.00 | 59 | 1005.5 |
| 20260504014000 | 62 | 233 | 0.0 | 0.0 | 0.00 | 0.00 | 0.00 | 58 | 1005.5 |
| 20260504013500 | 62 | 233 | 0.0 | 0.0 | 0.00 | 0.00 | 0.00 | 57 | 1005.5 |
| 20260504013000 | 63 | 233 | 0.0 | 0.0 | 0.00 | 0.00 | 0.00 | 56 | 1005.5 |
| 20260504012501 | 63 | 233 | 0.0 | 0.0 | 0.00 | 0.00 | 0.00 | 56 | 1005.3 |
| 20260504012000 | 63 | 231 | 0.0 | 0.0 | 0.00 | 0.00 | 0.00 | 55 | 1005.1 |
| 20260504011500 | 64 | 231 | 0.0 | 1.0 | 0.00 | 0.00 | 0.00 | 54 | 1005.1 |
| 20260504011000 | 64 | 233 | 0.0 | 1.0 | 0.00 | 0.00 | 0.00 | 54 | 1005.1 |
| 20260504010501 | 65 | 231 | 0.0 | 2.0 | 0.00 | 0.00 | 0.00 | 53 | 1005.1 |
| 20260504010004 | 65 | 232 | 0.0 | 2.0 | 0.00 | 0.00 | 0.00 | 52 | 1005.0 |
| 20260504005000 | 66 | 220 | 0.0 | 3.0 | 0.00 | 0.00 | 0.00 | 52 | 1005.0 |
| 20260504004500 | 66 | 256 | 0.0 | 3.0 | 0.00 | 0.00 | 0.00 | 51 | 1005.0 |
| 20260504004001 | 66 | 214 | 1.0 | 4.0 | 0.00 | 0.00 | 0.00 | 51 | 1005.1 |
| 20260504003500 | 66 | 239 | 0.0 | 4.0 | 0.00 | 0.00 | 0.00 | 52 | 1005.0 |
| 20260504003000 | 67 | 233 | 0.0 | 2.0 | 0.00 | 0.00 | 0.00 | 50 | 1005.1 |
| 20260504002001 | 67 | 243 | 1.0 | 4.0 | 0.00 | 0.00 | 0.00 | 50 | 1005.0 |
| 20260504001500 | 67 | 250 | 1.0 | 4.0 | 0.00 | 0.00 | 0.00 | 49 | 1005.0 |
| 20260504001000 | 67 | 234 | 2.0 | 5.0 | 0.00 | 0.00 | 0.00 | 49 | 1005.1 |
| 20260504000006 | 68 | 229 | 1.0 | 4.0 | 0.00 | 0.00 | 0.00 | 49 | 1005.1 |
| 20260503235500 | 68 | 311 | 2.0 | 5.0 | 0.00 | 0.00 | 0.00 | 48 | 1005.1 |
| 20260503235000 | 68 | 238 | 2.0 | 8.0 | 0.00 | 0.00 | 0.00 | 48 | 1005.2 |
| 20260503234501 | 68 | 221 | 3.0 | 8.0 | 0.00 | 0.00 | 0.00 | 48 | 1005.1 |
| 20260503234000 | 68 | 198 | 2.0 | 7.0 | 0.00 | 0.00 | 0.00 | 47 | 1005.1 |
| 20260503233500 | 68 | 229 | 2.0 | 7.0 | 0.00 | 0.00 | 0.00 | 47 | 1005.1 |
| 20260503233001 | 69 | 262 | 2.0 | 10.0 | 0.00 | 0.00 | 0.00 | 46 | 1005.2 |
| 20260503231000 | 69 | 297 | 3.0 | 7.0 | 0.00 | 0.00 | 0.00 | 45 | 1005.4 |
| 20260503224959 | 69 | 253 | 4.0 | 12.0 | 0.00 | 0.00 | 0.00 | 44 | 1005.5 |
| 20260503224459 | 70 | 271 | 3.0 | 10.0 | 0.00 | 0.00 | 0.00 | 45 | 1005.5 |
| 20260503223959 | 70 | 295 | 3.0 | 10.0 | 0.00 | 0.00 | 0.00 | 44 | 1005.5 |
| 20260503223500 | 70 | 216 | 4.0 | 10.0 | 0.00 | 0.00 | 0.00 | 45 | 1005.5 |
| 20260503222958 | 70 | 285 | 4.0 | 11.0 | 0.00 | 0.00 | 0.00 | 44 | 1005.5 |
| 20260503222459 | 69 | 214 | 4.0 | 10.0 | 0.00 | 0.00 | 0.00 | 44 | 1005.5 |
| 20260503221959 | 70 | 235 | 4.0 | 9.0 | 0.00 | 0.00 | 0.00 | 45 | 1005.4 |
| 20260503221500 | 70 | 281 | 4.0 | 9.0 | 0.00 | 0.00 | 0.00 | 45 | 1005.4 |
| 20260503220959 | 69 | 320 | 3.0 | 8.0 | 0.00 | 0.00 | 0.00 | 46 | 1005.5 |
| 20260503220500 | 69 | 108 | 3.0 | 10.0 | 0.00 | 0.00 | 0.00 | 46 | 1005.5 |
| 20260503220003 | 69 | 243 | 3.0 | 10.0 | 0.00 | 0.00 | 0.00 | 46 | 1005.5 |
| 20260503215501 | 69 | 245 | 3.0 | 8.0 | 0.00 | 0.00 | 0.00 | 47 | 1005.5 |
| 20260503215000 | 68 | 137 | 3.0 | 8.0 | 0.00 | 0.00 | 0.00 | 47 | 1005.6 |
| 20260503214500 | 68 | 215 | 4.0 | 10.0 | 0.00 | 0.00 | 0.00 | 46 | 1005.7 |
| 20260503214000 | 68 | 212 | 3.0 | 10.0 | 0.00 | 0.00 | 0.00 | 46 | 1005.8 |
| 20260503213501 | 68 | 53 | 4.0 | 11.0 | 0.00 | 0.00 | 0.00 | 46 | 1005.8 |
| 20260503213000 | 67 | 165 | 4.0 | 11.0 | 0.00 | 0.00 | 0.00 | 47 | 1006.0 |
| 20260503212001 | 67 | 237 | 3.0 | 12.0 | 0.00 | 0.00 | 0.00 | 48 | 1006.1 |
| 20260503211500 | 66 | 220 | 3.0 | 7.0 | 0.00 | 0.00 | 0.00 | 48 | 1006.1 |
| 20260503211002 | 66 | 195 | 4.0 | 9.0 | 0.00 | 0.00 | 0.00 | 47 | 1006.2 |
| 20260503210500 | 66 | 176 | 4.0 | 11.0 | 0.00 | 0.00 | 0.00 | 47 | 1006.4 |
| 20260503210005 | 67 | 188 | 4.0 | 11.0 | 0.00 | 0.00 | 0.00 | 47 | 1006.5 |
| 20260503205502 | 66 | 224 | 4.0 | 10.0 | 0.00 | 0.00 | 0.00 | 48 | 1006.7 |
| 20260503204500 | 66 | 165 | 4.0 | 11.0 | 0.00 | 0.00 | 0.00 | 47 | 1006.8 |
| 20260503203001 | 66 | 212 | 4.0 | 12.0 | 0.00 | 0.00 | 0.00 | 47 | 1007.1 |
| 20260503202500 | 66 | 261 | 4.0 | 11.0 | 0.00 | 0.00 | 0.00 | 45 | 1007.2 |
| 20260503202000 | 65 | 300 | 3.0 | 9.0 | 0.00 | 0.00 | 0.00 | 48 | 1007.3 |
| 20260503201500 | 65 | 270 | 3.0 | 12.0 | 0.00 | 0.00 | 0.00 | 47 | 1007.4 |
| 20260503201001 | 64 | 259 | 5.0 | 14.0 | 0.00 | 0.00 | 0.00 | 49 | 1007.5 |
| 20260503200500 | 64 | 208 | 5.0 | 14.0 | 0.00 | 0.00 | 0.00 | 49 | 1007.5 |
| 20260503200004 | 64 | 216 | 5.0 | 11.0 | 0.00 | 0.00 | 0.00 | 48 | 1007.7 |
| 20260503195501 | 64 | 205 | 4.0 | 11.0 | 0.00 | 0.00 | 0.00 | 48 | 1007.8 |
| 20260503195000 | 64 | 227 | 4.0 | 12.0 | 0.00 | 0.00 | 0.00 | 53 | 1007.8 |
| 20260503194500 | 64 | 217 | 5.0 | 12.0 | 0.00 | 0.00 | 0.00 | 54 | 1007.7 |
| 20260503194000 | 63 | 168 | 5.0 | 16.0 | 0.00 | 0.00 | 0.00 | 54 | 1008.0 |
| 20260503193501 | 63 | 188 | 5.0 | 15.0 | 0.00 | 0.00 | 0.00 | 55 | 1008.1 |
| 20260503193000 | 63 | 213 | 4.0 | 15.0 | 0.00 | 0.00 | 0.00 | 55 | 1008.3 |
| 20260503192500 | 62 | 237 | 4.0 | 10.0 | 0.00 | 0.00 | 0.00 | 57 | 1008.5 |
| 20260503192000 | 62 | 127 | 4.0 | 10.0 | 0.00 | 0.00 | 0.00 | 56 | 1008.6 |
| 20260503191001 | 62 | 110 | 4.0 | 9.0 | 0.00 | 0.00 | 0.00 | 56 | 1008.5 |
| 20260503190500 | 62 | 154 | 4.0 | 11.0 | 0.00 | 0.00 | 0.00 | 57 | 1008.5 |
| 20260503190003 | 61 | 259 | 5.0 | 11.0 | 0.00 | 0.00 | 0.00 | 56 | 1008.4 |
| 20260503185501 | 61 | 136 | 5.0 | 11.0 | 0.00 | 0.00 | 0.00 | 56 | 1008.4 |
| 20260503185000 | 61 | 191 | 5.0 | 11.0 | 0.00 | 0.00 | 0.00 | 56 | 1008.4 |
| 20260503184500 | 60 | 236 | 5.0 | 11.0 | 0.00 | 0.00 | 0.00 | 55 | 1008.5 |
| 20260503184000 | 60 | 147 | 5.0 | 11.0 | 0.00 | 0.00 | 0.00 | 56 | 1008.6 |
| 20260503183501 | 60 | 208 | 5.0 | 11.0 | 0.00 | 0.00 | 0.00 | 55 | 1008.7 |
| 20260503183000 | 60 | 238 | 4.0 | 9.0 | 0.00 | 0.00 | 0.00 | 56 | 1008.8 |
| 20260503182500 | 60 | 156 | 3.0 | 15.0 | 0.00 | 0.00 | 0.00 | 55 | 1008.9 |
| 20260503182002 | 60 | 224 | 4.0 | 12.0 | 0.00 | 0.00 | 0.00 | 58 | 1009.0 |
| 20260503181000 | 59 | 160 | 4.0 | 10.0 | 0.00 | 0.00 | 0.00 | 56 | 1009.4 |
| 20260503180501 | 59 | 250 | 4.0 | 13.0 | 0.00 | 0.00 | 0.00 | 58 | 1009.4 |
| 20260503180005 | 59 | 229 | 4.0 | 13.0 | 0.00 | 0.00 | 0.00 | 57 | 1009.4 |
| 20260503175500 | 58 | 68 | 4.0 | 11.0 | 0.00 | 0.00 | 0.00 | 58 | 1009.5 |
| 20260503175001 | 58 | 139 | 4.0 | 10.0 | 0.00 | 0.00 | 0.00 | 59 | 1009.6 |
| 20260503174500 | 58 | 139 | 5.0 | 8.0 | 0.00 | 0.00 | 0.00 | 60 | 1009.7 |
| 20260503173500 | 58 | 108 | 5.0 | 11.0 | 0.00 | 0.00 | 0.00 | 61 | 1009.9 |
| 20260503173000 | 57 | 158 | 4.0 | 10.0 | 0.00 | 0.00 | 0.00 | 62 | 1010.1 |
| 20260503172500 | 57 | 218 | 5.0 | 11.0 | 0.00 | 0.00 | 0.00 | 61 | 1010.1 |
| 20260503172000 | 57 | 150 | 5.0 | 11.0 | 0.00 | 0.00 | 0.00 | 62 | 1010.3 |
| 20260503171503 | 57 | 205 | 4.0 | 10.0 | 0.00 | 0.00 | 0.00 | 64 | 1010.5 |
| 20260503171000 | 56 | 124 | 4.0 | 9.0 | 0.00 | 0.00 | 0.00 | 65 | 1010.6 |
| 20260503170501 | 56 | 136 | 4.0 | 10.0 | 0.00 | 0.00 | 0.00 | 66 | 1010.9 |
| 20260503151000 | 53 | 222 | 5.0 | 13.0 | 0.00 | 0.00 | 0.00 | 66 | 1013.0 |
| 20260503150459 | 54 | 208 | 4.0 | 12.0 | 0.00 | 0.00 | 0.00 | 64 | 1013.0 |
| 20260503130959 | 48 | 218 | 2.0 | 7.0 | 0.00 | 0.00 | 0.00 | 66 | 1013.6 |
| 20260503130500 | 48 | 175 | 1.0 | 5.0 | 0.00 | 0.00 | 0.00 | 66 | 1013.5 |
| 20260503110459 | 46 | 142 | 1.0 | 4.0 | 0.00 | 0.00 | 0.00 | 67 | 1013.1 |
| 20260503090500 | 45 | 70 | 0.0 | 2.0 | 0.00 | 0.00 | 0.00 | 63 | 1013.7 |
| 20260503081459 | 47 | 252 | 0.0 | 3.0 | 0.00 | 0.00 | 0.00 | 58 | 1014.1 |
| 20260503080459 | 47 | 195 | 1.0 | 5.0 | 0.00 | 0.00 | 0.00 | 57 | 1014.2 |
| 20260503072459 | 47 | 241 | 0.0 | 1.0 | 0.00 | 0.00 | 0.00 | 56 | 1014.2 |
| 20260503071959 | 47 | 198 | 0.0 | 2.0 | 0.00 | 0.00 | 0.00 | 56 | 1014.2 |
| 20260503071459 | 47 | 199 | 0.0 | 3.0 | 0.00 | 0.00 | 0.00 | 55 | 1014.2 |
| 20260503071000 | 47 | 131 | 1.0 | 3.0 | 0.00 | 0.00 | 0.00 | 56 | 1014.2 |
| 20260503070459 | 47 | 234 | 0.0 | 3.0 | 0.00 | 0.00 | 0.00 | 56 | 1014.3 |